sat.trackr.live / text

‹ back to catalog

STARLINK-4360

NORAD 53482 · 2022-099T

PAYLOAD ACTIVE UNKNOWN

§ Identity

Operator
Country
US
Launch date
2022-08-12
Launch site
AFWTR
Launch vehicle
Mass (kg)
RCS (m²)

Purposes: comms

External: N2YO · Heavens-Above · Gunter

§ Orbital elements

Epoch: 2026-05-25T00:33:25.731072Z

Period
95.64 min
Inclination
97.4510°
Eccentricity
0.0001317
Mean motion
15.05653946 rev/d
Perigee alt
548.6 km
Apogee alt
550.4 km
Semi-major
6,927.6 km
B*
-9.0430e-5
RAAN
265.0217°
Arg perigee
180.0960°
Mean anomaly
180.0267°
Rev number
20,746

§ Raw data

STARLINK-43601 53482U 22099T   26145.02321448 -.00001363  00000+0 -90430-4 0  99902 53482  97.4510 265.0217 0001317 180.0960 180.0267 15.05653946207466

JSON: /api/v1/satellites/53482 · /tle

For live sub-satellite position, see the globe view (requires WebGL).

§ Visibility from observer

Set your observer location to see the next 7 days of passes ≥ 10°. The values pass through the URL so the page stays shareable.

No JS? Fill the form by hand. The geolocation button needs JavaScript.